| time (UTC) | temp F | wind direction | speed MPH | gust MPH | rain 1hr in | rain 24hr in | rain mn in | humidity % | barometer mb |
| 20260904141004 | 99 | 63 | 2.0 | 8.0 | 0.00 | 0.00 | 0.00 | 25 | 1021.4 |
| 20260904140504 | 97 | 55 | 3.0 | 8.0 | 0.00 | 0.00 | 0.00 | 25 | 1021.3 |
| 20260904140004 | 98 | 288 | 2.0 | 7.0 | 0.00 | 0.00 | 0.00 | 25 | 1021.3 |
| 20260904135504 | 100 | 260 | 2.0 | 6.0 | 0.00 | 0.00 | 0.00 | 24 | 1021.4 |
| 20260904135004 | 101 | 266 | 1.0 | 4.0 | 0.00 | 0.00 | 0.00 | 24 | 1021.1 |
| 20260904134525 | 99 | 18 | 2.0 | 4.0 | 0.00 | 0.00 | 0.00 | 25 | 1021.4 |
| 20260904134004 | 98 | 356 | 1.0 | 4.0 | 0.00 | 0.00 | 0.00 | 26 | 1021.3 |
| 20260904133504 | 99 | 259 | 1.0 | 4.0 | 0.00 | 0.00 | 0.00 | 26 | 1021.4 |
| 20260904133004 | 99 | 254 | 2.0 | 6.0 | 0.00 | 0.00 | 0.00 | 26 | 1021.6 |
| 20260904132504 | 99 | 298 | 2.0 | 6.0 | 0.00 | 0.00 | 0.00 | 26 | 1021.6 |
| 20260904132004 | 98 | 325 | 3.0 | 7.0 | 0.00 | 0.00 | 0.00 | 26 | 1021.6 |
| 20260904131504 | 98 | 282 | 2.0 | 7.0 | 0.00 | 0.00 | 0.00 | 25 | 1021.7 |
| 20260904131004 | 99 | 197 | 1.0 | 7.0 | 0.00 | 0.00 | 0.00 | 25 | 1021.7 |
| 20260904130525 | 98 | 258 | 1.0 | 6.0 | 0.00 | 0.00 | 0.00 | 27 | 1021.7 |
| 20260904130004 | 98 | 266 | 2.0 | 6.0 | 0.00 | 0.00 | 0.00 | 27 | 1022.0 |
| 20260904125525 | 98 | 268 | 1.0 | 4.0 | 0.00 | 0.00 | 0.00 | 25 | 1021.9 |
| 20260904125004 | 97 | 276 | 1.0 | 6.0 | 0.00 | 0.00 | 0.00 | 28 | 1021.8 |
| 20260904124504 | 96 | 278 | 1.0 | 6.0 | 0.00 | 0.00 | 0.00 | 28 | 1022.0 |
| 20260904124025 | 97 | 77 | 1.0 | 6.0 | 0.00 | 0.00 | 0.00 | 30 | 1021.9 |
| 20260904123504 | 96 | 31 | 1.0 | 4.0 | 0.00 | 0.00 | 0.00 | 31 | 1022.0 |
| 20260904123004 | 96 | 282 | 1.0 | 4.0 | 0.00 | 0.00 | 0.00 | 30 | 1022.1 |
| 20260904122504 | 96 | 263 | 1.0 | 6.0 | 0.00 | 0.00 | 0.00 | 31 | 1022.2 |
| 20260904122004 | 96 | 256 | 2.0 | 6.0 | 0.00 | 0.00 | 0.00 | 32 | 1022.1 |
| 20260904121504 | 95 | 265 | 1.0 | 4.0 | 0.00 | 0.00 | 0.00 | 33 | 1022.4 |
| 20260904121004 | 95 | 266 | 1.0 | 4.0 | 0.00 | 0.00 | 0.00 | 35 | 1022.4 |
| 20260904120504 | 95 | 255 | 1.0 | 6.0 | 0.00 | 0.00 | 0.00 | 35 | 1022.4 |
| 20260904120004 | 94 | 267 | 1.0 | 6.0 | 0.00 | 0.00 | 0.00 | 34 | 1022.7 |
| 20260904115504 | 94 | 294 | 1.0 | 7.0 | 0.00 | 0.00 | 0.00 | 35 | 1022.5 |
| 20260904115004 | 94 | 301 | 2.0 | 7.0 | 0.00 | 0.00 | 0.00 | 36 | 1022.7 |
| 20260904114504 | 92 | 235 | 1.0 | 3.0 | 0.00 | 0.00 | 0.00 | 37 | 1022.4 |
| 20260904114025 | 93 | 174 | 2.0 | 6.0 | 0.00 | 0.00 | 0.00 | 37 | 1022.8 |
| 20260904113504 | 91 | 191 | 1.0 | 6.0 | 0.00 | 0.00 | 0.00 | 37 | 1022.8 |
| 20260904113025 | 92 | 160 | 1.0 | 4.0 | 0.00 | 0.00 | 0.00 | 37 | 1022.9 |
| 20260904112504 | 90 | 109 | 1.0 | 4.0 | 0.00 | 0.00 | 0.00 | 38 | 1022.7 |
| 20260904112025 | 91 | 334 | 1.0 | 4.0 | 0.00 | 0.00 | 0.00 | 39 | 1023.0 |
| 20260904111504 | 91 | 270 | 1.0 | 4.0 | 0.00 | 0.00 | 0.00 | 39 | 1023.2 |
| 20260904111004 | 91 | 252 | 1.0 | 4.0 | 0.00 | 0.00 | 0.00 | 40 | 1023.0 |
| 20260904110504 | 90 | 253 | 1.0 | 4.0 | 0.00 | 0.00 | 0.00 | 40 | 1023.0 |
| 20260904110004 | 89 | 160 | 1.0 | 2.0 | 0.00 | 0.00 | 0.00 | 41 | 1023.1 |
| 20260904105504 | 89 | 219 | 1.0 | 2.0 | 0.00 | 0.00 | 0.00 | 41 | 1022.9 |
| 20260904105025 | 89 | 229 | 1.0 | 2.0 | 0.00 | 0.00 | 0.00 | 41 | 1023.2 |
| 20260904104525 | 88 | 219 | 1.0 | 2.0 | 0.00 | 0.00 | 0.00 | 42 | 1023.3 |
| 20260904104025 | 87 | 92 | 1.0 | 3.0 | 0.00 | 0.00 | 0.00 | 42 | 1023.4 |
| 20260904103504 | 86 | 187 | 1.0 | 3.0 | 0.00 | 0.00 | 0.00 | 44 | 1023.3 |
| 20260904103004 | 88 | 248 | 1.0 | 3.0 | 0.00 | 0.00 | 0.00 | 41 | 1023.7 |
| 20260904102504 | 87 | 251 | 1.0 | 3.0 | 0.00 | 0.00 | 0.00 | 43 | 1023.6 |
| 20260904102004 | 87 | 250 | 1.0 | 3.0 | 0.00 | 0.00 | 0.00 | 45 | 1023.6 |
| 20260904101504 | 85 | 262 | 1.0 | 4.0 | 0.00 | 0.00 | 0.00 | 44 | 1023.6 |
| 20260904101004 | 85 | 262 | 1.0 | 4.0 | 0.00 | 0.00 | 0.00 | 45 | 1023.9 |
| 20260904100504 | 84 | 257 | 1.0 | 3.0 | 0.00 | 0.00 | 0.00 | 46 | 1023.7 |
| 20260904100004 | 84 | 258 | 1.0 | 3.0 | 0.00 | 0.00 | 0.00 | 47 | 1024.0 |
| 20260904095504 | 83 | 254 | 1.0 | 3.0 | 0.00 | 0.00 | 0.00 | 49 | 1024.0 |
| 20260904095004 | 83 | 250 | 1.0 | 3.0 | 0.00 | 0.00 | 0.00 | 48 | 1023.9 |
| 20260904094504 | 82 | 247 | 1.0 | 3.0 | 0.00 | 0.00 | 0.00 | 49 | 1024.0 |
| 20260904094004 | 81 | 250 | 1.0 | 2.0 | 0.00 | 0.00 | 0.00 | 50 | 1024.0 |
| 20260904093504 | 81 | 240 | 1.0 | 2.0 | 0.00 | 0.00 | 0.00 | 51 | 1024.0 |
| 20260904093004 | 80 | 240 | 1.0 | 2.0 | 0.00 | 0.00 | 0.00 | 52 | 1024.0 |
| 20260904092504 | 81 | 236 | 1.0 | 4.0 | 0.00 | 0.00 | 0.00 | 52 | 1024.0 |
| 20260904092004 | 80 | 234 | 1.0 | 4.0 | 0.00 | 0.00 | 0.00 | 52 | 1023.9 |
| 20260904091525 | 80 | 251 | 1.0 | 3.0 | 0.00 | 0.00 | 0.00 | 53 | 1024.0 |
| 20260904091004 | 79 | 257 | 1.0 | 4.0 | 0.00 | 0.00 | 0.00 | 53 | 1024.0 |
| 20260904090504 | 78 | 254 | 1.0 | 4.0 | 0.00 | 0.00 | 0.00 | 55 | 1024.0 |
| 20260904090004 | 78 | 251 | 1.0 | 3.0 | 0.00 | 0.00 | 0.00 | 53 | 1024.1 |
| 20260904085504 | 78 | 243 | 1.0 | 3.0 | 0.00 | 0.00 | 0.00 | 53 | 1023.9 |
| 20260904085004 | 78 | 243 | 1.0 | 3.0 | 0.00 | 0.00 | 0.00 | 54 | 1023.8 |
| 20260904084503 | 76 | 256 | 1.0 | 3.0 | 0.00 | 0.00 | 0.00 | 57 | 1024.1 |
| 20260904084004 | 76 | 262 | 1.0 | 3.0 | 0.00 | 0.00 | 0.00 | 56 | 1024.2 |
| 20260904083504 | 75 | 253 | 1.0 | 3.0 | 0.00 | 0.00 | 0.00 | 57 | 1024.2 |
| 20260904083004 | 75 | 255 | 1.0 | 2.0 | 0.00 | 0.00 | 0.00 | 58 | 1024.4 |
| 20260904082504 | 75 | 260 | 1.0 | 3.0 | 0.00 | 0.00 | 0.00 | 59 | 1023.9 |
| 20260904082004 | 74 | 260 | 1.0 | 3.0 | 0.00 | 0.00 | 0.00 | 61 | 1024.1 |
| 20260904081525 | 73 | 256 | 1.0 | 3.0 | 0.00 | 0.00 | 0.00 | 60 | 1024.0 |
| 20260904081004 | 73 | 253 | 1.0 | 3.0 | 0.00 | 0.00 | 0.00 | 61 | 1024.0 |
| 20260904080525 | 73 | 253 | 1.0 | 2.0 | 0.00 | 0.00 | 0.00 | 61 | 1023.9 |
| 20260904080004 | 72 | 254 | 1.0 | 2.0 | 0.00 | 0.00 | 0.00 | 62 | 1024.1 |
| 20260904075503 | 72 | 247 | 1.0 | 3.0 | 0.00 | 0.00 | 0.00 | 63 | 1023.9 |
| 20260904075004 | 72 | 241 | 1.0 | 3.0 | 0.00 | 0.00 | 0.00 | 63 | 1024.1 |
| 20260904074504 | 71 | 242 | 1.0 | 2.0 | 0.00 | 0.00 | 0.00 | 63 | 1024.1 |
| 20260904074004 | 70 | 243 | 1.0 | 2.0 | 0.00 | 0.00 | 0.00 | 65 | 1024.2 |
| 20260904073504 | 69 | 244 | 1.0 | 2.0 | 0.00 | 0.00 | 0.00 | 66 | 1024.2 |
| 20260904073004 | 69 | 244 | 1.0 | 2.0 | 0.00 | 0.00 | 0.00 | 67 | 1024.5 |
| 20260904072504 | 69 | 251 | 1.0 | 3.0 | 0.00 | 0.00 | 0.00 | 67 | 1024.1 |
| 20260904072004 | 69 | 253 | 1.0 | 3.0 | 0.00 | 0.00 | 0.00 | 68 | 1024.2 |
| 20260904071525 | 68 | 250 | 1.0 | 3.0 | 0.00 | 0.00 | 0.00 | 68 | 1024.2 |
| 20260904071003 | 68 | 235 | 1.0 | 2.0 | 0.00 | 0.00 | 0.00 | 69 | 1024.5 |
| 20260904070504 | 68 | 245 | 1.0 | 2.0 | 0.00 | 0.00 | 0.00 | 70 | 1024.4 |
| 20260904070025 | 67 | 247 | 1.0 | 2.0 | 0.00 | 0.00 | 0.00 | 70 | 1024.4 |
| 20260904065503 | 67 | 235 | 1.0 | 1.0 | 0.00 | 0.00 | 0.00 | 70 | 1024.5 |
| 20260904065004 | 67 | 230 | 0.0 | 1.0 | 0.00 | 0.00 | 0.00 | 72 | 1024.5 |
| 20260904064524 | 66 | 225 | 0.0 | 1.0 | 0.00 | 0.00 | 0.00 | 72 | 1024.2 |
| 20260904064024 | 66 | 221 | 0.0 | 1.0 | 0.00 | 0.00 | 0.00 | 72 | 1024.5 |
| 20260904063525 | 66 | 219 | 0.0 | 1.0 | 0.00 | 0.00 | 0.00 | 72 | 1024.2 |
| 20260904063004 | 66 | 215 | 0.0 | 1.0 | 0.00 | 0.00 | 0.00 | 72 | 1024.1 |
| 20260904062504 | 66 | 216 | 0.0 | 2.0 | 0.00 | 0.00 | 0.00 | 71 | 1024.1 |
| 20260904062004 | 66 | 224 | 0.0 | 2.0 | 0.00 | 0.00 | 0.00 | 72 | 1024.1 |
| 20260904061504 | 66 | 234 | 0.0 | 1.0 | 0.00 | 0.00 | 0.00 | 72 | 1024.2 |
| 20260904061004 | 66 | 0 | 0.0 | 0.0 | 0.00 | 0.00 | 0.00 | 71 | 1024.1 |
| 20260904060503 | 66 | 220 | 0.0 | 1.0 | 0.00 | 0.00 | 0.00 | 71 | 1024.4 |
| 20260904060004 | 66 | 220 | 0.0 | 1.0 | 0.00 | 0.00 | 0.00 | 71 | 1024.1 |
| 20260904055504 | 66 | 222 | 0.0 | 1.0 | 0.00 | 0.00 | 0.00 | 71 | 1024.0 |
| 20260904055003 | 66 | 222 | 0.0 | 1.0 | 0.00 | 0.00 | 0.00 | 71 | 1024.1 |
| 20260904054503 | 66 | 223 | 1.0 | 2.0 | 0.00 | 0.00 | 0.00 | 71 | 1024.2 |
| 20260904054004 | 66 | 223 | 1.0 | 2.0 | 0.00 | 0.00 | 0.00 | 71 | 1024.0 |
| 20260904053503 | 66 | 221 | 1.0 | 2.0 | 0.00 | 0.00 | 0.00 | 71 | 1024.0 |
| 20260904053004 | 66 | 222 | 0.0 | 2.0 | 0.00 | 0.00 | 0.00 | 71 | 1024.4 |
| 20260904052504 | 66 | 222 | 0.0 | 1.0 | 0.00 | 0.00 | 0.00 | 71 | 1024.0 |
| 20260904052024 | 66 | 216 | 0.0 | 2.0 | 0.00 | 0.00 | 0.00 | 72 | 1024.2 |
| 20260904051524 | 66 | 217 | 0.0 | 2.0 | 0.00 | 0.00 | 0.00 | 71 | 1024.1 |
| 20260904051004 | 66 | 223 | 0.0 | 1.0 | 0.00 | 0.00 | 0.00 | 71 | 1023.8 |
| 20260904050524 | 67 | 225 | 0.0 | 1.0 | 0.00 | 0.00 | 0.00 | 71 | 1024.2 |
| 20260904050004 | 67 | 224 | 0.0 | 2.0 | 0.00 | 0.00 | 0.00 | 70 | 1024.1 |
| 20260904045503 | 67 | 223 | 1.0 | 2.0 | 0.00 | 0.00 | 0.00 | 71 | 1024.0 |
| 20260904045003 | 67 | 223 | 0.0 | 2.0 | 0.00 | 0.00 | 0.00 | 70 | 1024.0 |
| 20260904044503 | 67 | 223 | 0.0 | 1.0 | 0.00 | 0.00 | 0.00 | 70 | 1024.1 |
| 20260904044004 | 67 | 220 | 0.0 | 1.0 | 0.00 | 0.00 | 0.00 | 70 | 1024.0 |
| 20260904043503 | 67 | 224 | 0.0 | 2.0 | 0.00 | 0.00 | 0.00 | 70 | 1023.9 |
| 20260904043003 | 67 | 223 | 1.0 | 2.0 | 0.00 | 0.00 | 0.00 | 71 | 1024.1 |
| 20260904042503 | 67 | 222 | 0.0 | 1.0 | 0.00 | 0.00 | 0.00 | 70 | 1024.1 |
| 20260904042004 | 67 | 218 | 0.0 | 1.0 | 0.00 | 0.00 | 0.00 | 71 | 1024.0 |
| 20260904041525 | 67 | 223 | 0.0 | 1.0 | 0.00 | 0.00 | 0.00 | 71 | 1024.2 |
| 20260904041024 | 67 | 223 | 0.0 | 1.0 | 0.00 | 0.00 | 0.00 | 70 | 1024.1 |
| 20260904040503 | 67 | 229 | 0.0 | 1.0 | 0.00 | 0.00 | 0.00 | 71 | 1024.2 |
| 20260904040004 | 67 | 228 | 0.0 | 1.0 | 0.00 | 0.00 | 0.00 | 71 | 1024.1 |
| 20260904035524 | 67 | 228 | 0.0 | 1.0 | 0.00 | 0.00 | 0.00 | 71 | 1024.4 |
| 20260904035003 | 67 | 0 | 0.0 | 0.0 | 0.00 | 0.00 | 0.00 | 70 | 1024.2 |
| 20260904034503 | 68 | 225 | 0.0 | 1.0 | 0.00 | 0.00 | 0.00 | 70 | 1024.2 |
| 20260904034024 | 68 | 224 | 0.0 | 1.0 | 0.00 | 0.00 | 0.00 | 69 | 1024.0 |
| 20260904033503 | 69 | 220 | 0.0 | 1.0 | 0.00 | 0.00 | 0.00 | 69 | 1024.2 |
| 20260904033003 | 68 | 220 | 0.0 | 1.0 | 0.00 | 0.00 | 0.00 | 69 | 1024.2 |
| 20260904032504 | 69 | 221 | 0.0 | 1.0 | 0.00 | 0.00 | 0.00 | 68 | 1024.4 |
| 20260904032003 | 69 | 222 | 0.0 | 1.0 | 0.00 | 0.00 | 0.00 | 68 | 1024.1 |
| 20260904031525 | 69 | 223 | 0.0 | 1.0 | 0.00 | 0.00 | 0.00 | 68 | 1024.2 |
| 20260904031003 | 69 | 223 | 0.0 | 1.0 | 0.00 | 0.00 | 0.00 | 68 | 1024.2 |
| 20260904030503 | 69 | 223 | 0.0 | 1.0 | 0.00 | 0.00 | 0.00 | 68 | 1024.4 |
| 20260904030004 | 69 | 221 | 0.0 | 1.0 | 0.00 | 0.00 | 0.00 | 67 | 1024.4 |
| 20260904025504 | 69 | 221 | 0.0 | 1.0 | 0.00 | 0.00 | 0.00 | 68 | 1024.2 |
| 20260904025024 | 69 | 220 | 0.0 | 1.0 | 0.00 | 0.00 | 0.00 | 67 | 1024.6 |
| 20260904024503 | 70 | 220 | 0.0 | 1.0 | 0.00 | 0.00 | 0.00 | 67 | 1024.5 |
| 20260904024004 | 70 | 220 | 0.0 | 1.0 | 0.00 | 0.00 | 0.00 | 66 | 1024.6 |
| 20260904023504 | 70 | 221 | 1.0 | 1.0 | 0.00 | 0.00 | 0.00 | 66 | 1024.5 |
| 20260904023024 | 70 | 220 | 1.0 | 1.0 | 0.00 | 0.00 | 0.00 | 66 | 1024.7 |
| 20260904022524 | 70 | 220 | 0.0 | 1.0 | 0.00 | 0.00 | 0.00 | 66 | 1024.4 |
| 20260904022003 | 70 | 218 | 0.0 | 1.0 | 0.00 | 0.00 | 0.00 | 66 | 1024.6 |
| 20260904021504 | 70 | 218 | 0.0 | 1.0 | 0.00 | 0.00 | 0.00 | 66 | 1024.5 |
| 20260904021003 | 70 | 218 | 0.0 | 1.0 | 0.00 | 0.00 | 0.00 | 67 | 1024.6 |
| 20260904020503 | 70 | 218 | 0.0 | 1.0 | 0.00 | 0.00 | 0.00 | 67 | 1024.5 |
| 20260904020004 | 71 | 0 | 0.0 | 0.0 | 0.00 | 0.00 | 0.00 | 66 | 1024.6 |
| 20260904015503 | 71 | 195 | 0.0 | 1.0 | 0.00 | 0.00 | 0.00 | 65 | 1024.5 |
| 20260904015004 | 72 | 192 | 0.0 | 1.0 | 0.00 | 0.00 | 0.00 | 64 | 1024.6 |
| 20260904014503 | 71 | 189 | 0.0 | 1.0 | 0.00 | 0.00 | 0.00 | 65 | 1024.4 |
| 20260904014003 | 71 | 214 | 1.0 | 2.0 | 0.00 | 0.00 | 0.00 | 65 | 1024.6 |
| 20260904013503 | 71 | 220 | 1.0 | 2.0 | 0.00 | 0.00 | 0.00 | 64 | 1024.7 |
| 20260904013003 | 71 | 222 | 1.0 | 2.0 | 0.00 | 0.00 | 0.00 | 65 | 1024.7 |
| 20260904012503 | 71 | 223 | 1.0 | 2.0 | 0.00 | 0.00 | 0.00 | 66 | 1024.7 |
| 20260904012003 | 70 | 225 | 1.0 | 3.0 | 0.00 | 0.00 | 0.00 | 66 | 1024.7 |
| 20260904011525 | 71 | 224 | 1.0 | 3.0 | 0.00 | 0.00 | 0.00 | 66 | 1024.6 |
| 20260904011003 | 71 | 219 | 0.0 | 2.0 | 0.00 | 0.00 | 0.00 | 65 | 1024.6 |
| 20260904010503 | 71 | 0 | 0.0 | 0.0 | 0.00 | 0.00 | 0.00 | 65 | 1024.6 |
| 20260904010004 | 72 | 188 | 0.0 | 1.0 | 0.00 | 0.00 | 0.00 | 64 | 1024.8 |
| 20260904005504 | 72 | 194 | 0.0 | 1.0 | 0.00 | 0.00 | 0.00 | 63 | 1024.5 |
| 20260904005003 | 73 | 213 | 1.0 | 2.0 | 0.00 | 0.00 | 0.00 | 62 | 1024.7 |
| 20260904004504 | 73 | 220 | 1.0 | 2.0 | 0.00 | 0.00 | 0.00 | 62 | 1024.6 |
| 20260904004003 | 73 | 222 | 1.0 | 2.0 | 0.00 | 0.00 | 0.00 | 62 | 1024.8 |
| 20260904003504 | 73 | 222 | 1.0 | 2.0 | 0.00 | 0.00 | 0.00 | 62 | 1024.8 |
| 20260904003003 | 72 | 221 | 1.0 | 2.0 | 0.00 | 0.00 | 0.00 | 62 | 1025.1 |
| 20260904002503 | 72 | 221 | 0.0 | 1.0 | 0.00 | 0.00 | 0.00 | 64 | 1024.8 |
| 20260904002003 | 72 | 224 | 0.0 | 1.0 | 0.00 | 0.00 | 0.00 | 63 | 1025.1 |
| 20260904001503 | 73 | 222 | 1.0 | 2.0 | 0.00 | 0.00 | 0.00 | 63 | 1025.0 |
| 20260904001003 | 73 | 221 | 0.0 | 2.0 | 0.00 | 0.00 | 0.00 | 62 | 1025.1 |
| 20260904000503 | 73 | 0 | 0.0 | 0.0 | 0.00 | 0.00 | 0.00 | 62 | 1024.9 |
| 20260904000004 | 73 | 221 | 0.0 | 1.0 | 0.00 | 0.00 | 0.00 | 62 | 1024.7 |
| 20260903235503 | 74 | 222 | 0.0 | 1.0 | 0.00 | 0.00 | 0.00 | 61 | 1024.7 |
| 20260903235024 | 74 | 223 | 0.0 | 1.0 | 0.00 | 0.00 | 0.00 | 61 | 1024.6 |
| 20260903234503 | 74 | 221 | 0.0 | 1.0 | 0.00 | 0.00 | 0.00 | 60 | 1024.8 |
| 20260903234025 | 74 | 220 | 0.0 | 1.0 | 0.00 | 0.00 | 0.00 | 60 | 1024.9 |
| 20260903233503 | 74 | 217 | 1.0 | 2.0 | 0.00 | 0.00 | 0.00 | 60 | 1024.8 |
| 20260903233003 | 74 | 221 | 1.0 | 2.0 | 0.00 | 0.00 | 0.00 | 61 | 1025.0 |
| 20260903232503 | 74 | 226 | 0.0 | 1.0 | 0.00 | 0.00 | 0.00 | 61 | 1024.9 |
| 20260903232003 | 74 | 224 | 0.0 | 1.0 | 0.00 | 0.00 | 0.00 | 60 | 1024.8 |
| 20260903231503 | 74 | 228 | 0.0 | 1.0 | 0.00 | 0.00 | 0.00 | 60 | 1024.8 |
| 20260903231003 | 74 | 0 | 0.0 | 0.0 | 0.00 | 0.00 | 0.00 | 60 | 1024.7 |
| 20260903230524 | 75 | 205 | 0.0 | 1.0 | 0.00 | 0.00 | 0.00 | 59 | 1024.7 |
| 20260903230004 | 75 | 218 | 1.0 | 2.0 | 0.00 | 0.00 | 0.00 | 58 | 1024.8 |
| 20260903225503 | 76 | 219 | 1.0 | 2.0 | 0.00 | 0.00 | 0.00 | 57 | 1024.5 |
| 20260903225003 | 76 | 219 | 0.0 | 1.0 | 0.00 | 0.00 | 0.00 | 57 | 1024.7 |
| 20260903224503 | 76 | 221 | 0.0 | 1.0 | 0.00 | 0.00 | 0.00 | 57 | 1024.6 |
| 20260903224024 | 76 | 221 | 1.0 | 1.0 | 0.00 | 0.00 | 0.00 | 57 | 1024.7 |
| 20260903223503 | 76 | 222 | 0.0 | 1.0 | 0.00 | 0.00 | 0.00 | 57 | 1024.7 |
| 20260903223024 | 76 | 0 | 0.0 | 0.0 | 0.00 | 0.00 | 0.00 | 57 | 1024.5 |
| 20260903222503 | 77 | 223 | 0.0 | 1.0 | 0.00 | 0.00 | 0.00 | 56 | 1024.6 |
| 20260903222024 | 77 | 226 | 0.0 | 1.0 | 0.00 | 0.00 | 0.00 | 56 | 1024.5 |
| 20260903221503 | 77 | 226 | 1.0 | 2.0 | 0.00 | 0.00 | 0.00 | 55 | 1024.5 |
| 20260903221003 | 78 | 226 | 1.0 | 2.0 | 0.00 | 0.00 | 0.00 | 55 | 1024.5 |
| 20260903220503 | 78 | 228 | 0.0 | 1.0 | 0.00 | 0.00 | 0.00 | 55 | 1024.4 |
| 20260903220004 | 77 | 228 | 0.0 | 1.0 | 0.00 | 0.00 | 0.00 | 55 | 1024.5 |
| 20260903215503 | 78 | 222 | 0.0 | 1.0 | 0.00 | 0.00 | 0.00 | 55 | 1024.5 |
| 20260903215024 | 78 | 223 | 0.0 | 1.0 | 0.00 | 0.00 | 0.00 | 55 | 1024.4 |
| 20260903214503 | 78 | 224 | 0.0 | 1.0 | 0.00 | 0.00 | 0.00 | 55 | 1024.4 |
| 20260903214003 | 78 | 227 | 0.0 | 1.0 | 0.00 | 0.00 | 0.00 | 55 | 1024.4 |
| 20260903213503 | 78 | 228 | 0.0 | 1.0 | 0.00 | 0.00 | 0.00 | 55 | 1024.2 |
| 20260903213024 | 78 | 227 | 0.0 | 1.0 | 0.00 | 0.00 | 0.00 | 54 | 1024.5 |
| 20260903212503 | 79 | 0 | 0.0 | 0.0 | 0.00 | 0.00 | 0.00 | 53 | 1024.4 |
| 20260903212003 | 79 | 0 | 0.0 | 0.0 | 0.00 | 0.00 | 0.00 | 52 | 1024.5 |
| 20260903211503 | 80 | 0 | 0.0 | 0.0 | 0.00 | 0.00 | 0.00 | 52 | 1024.4 |
| 20260903211003 | 80 | 0 | 0.0 | 0.0 | 0.00 | 0.00 | 0.00 | 51 | 1024.1 |
| 20260903210503 | 80 | 220 | 0.0 | 1.0 | 0.00 | 0.00 | 0.00 | 50 | 1024.2 |
| 20260903210003 | 81 | 220 | 0.0 | 1.0 | 0.00 | 0.00 | 0.00 | 49 | 1024.2 |
| 20260903205503 | 82 | 218 | 0.0 | 2.0 | 0.00 | 0.00 | 0.00 | 49 | 1024.2 |
| 20260903205003 | 82 | 218 | 0.0 | 2.0 | 0.00 | 0.00 | 0.00 | 48 | 1024.2 |
| 20260903204503 | 83 | 218 | 0.0 | 2.0 | 0.00 | 0.00 | 0.00 | 47 | 1024.1 |
| 20260903204003 | 83 | 219 | 1.0 | 2.0 | 0.00 | 0.00 | 0.00 | 46 | 1024.2 |
| 20260903203503 | 83 | 220 | 1.0 | 2.0 | 0.00 | 0.00 | 0.00 | 46 | 1024.0 |
| 20260903203004 | 83 | 220 | 0.0 | 2.0 | 0.00 | 0.00 | 0.00 | 46 | 1024.1 |
| 20260903202503 | 83 | 220 | 1.0 | 3.0 | 0.00 | 0.00 | 0.00 | 46 | 1024.0 |
| 20260903202003 | 84 | 225 | 1.0 | 3.0 | 0.00 | 0.00 | 0.00 | 45 | 1023.9 |
| 20260903201503 | 84 | 229 | 0.0 | 2.0 | 0.00 | 0.00 | 0.00 | 45 | 1023.8 |
| 20260903201003 | 84 | 223 | 1.0 | 1.0 | 0.00 | 0.00 | 0.00 | 45 | 1023.7 |
| 20260903200503 | 84 | 223 | 1.0 | 3.0 | 0.00 | 0.00 | 0.00 | 45 | 1023.6 |
| 20260903200003 | 84 | 226 | 1.0 | 3.0 | 0.00 | 0.00 | 0.00 | 44 | 1023.5 |
| 20260903195503 | 84 | 225 | 0.0 | 1.0 | 0.00 | 0.00 | 0.00 | 44 | 1023.7 |
| 20260903195024 | 84 | 221 | 0.0 | 1.0 | 0.00 | 0.00 | 0.00 | 45 | 1023.7 |
| 20260903194503 | 84 | 225 | 1.0 | 2.0 | 0.00 | 0.00 | 0.00 | 45 | 1023.7 |
| 20260903194003 | 84 | 228 | 1.0 | 2.0 | 0.00 | 0.00 | 0.00 | 45 | 1023.5 |
| 20260903193524 | 84 | 228 | 1.0 | 2.0 | 0.00 | 0.00 | 0.00 | 45 | 1023.4 |
| 20260903193024 | 85 | 228 | 1.0 | 2.0 | 0.00 | 0.00 | 0.00 | 45 | 1023.3 |
| 20260903192524 | 85 | 229 | 1.0 | 3.0 | 0.00 | 0.00 | 0.00 | 45 | 1023.1 |
| 20260903192003 | 85 | 231 | 2.0 | 3.0 | 0.00 | 0.00 | 0.00 | 45 | 1023.1 |
| 20260903191503 | 85 | 231 | 2.0 | 3.0 | 0.00 | 0.00 | 0.00 | 45 | 1023.2 |
| 20260903191003 | 85 | 231 | 2.0 | 2.0 | 0.00 | 0.00 | 0.00 | 45 | 1022.9 |
| 20260903190503 | 85 | 235 | 2.0 | 2.0 | 0.00 | 0.00 | 0.00 | 45 | 1022.9 |
| 20260903190024 | 86 | 236 | 2.0 | 6.0 | 0.00 | 0.00 | 0.00 | 45 | 1022.5 |
| 20260903185503 | 86 | 229 | 2.0 | 6.0 | 0.00 | 0.00 | 0.00 | 45 | 1022.7 |
| 20260903185003 | 86 | 223 | 1.0 | 3.0 | 0.00 | 0.00 | 0.00 | 45 | 1022.5 |
| 20260903184503 | 86 | 244 | 2.0 | 3.0 | 0.00 | 0.00 | 0.00 | 45 | 1022.8 |
| 20260903184024 | 87 | 261 | 2.0 | 4.0 | 0.00 | 0.00 | 0.00 | 45 | 1022.4 |
| 20260903183503 | 87 | 265 | 2.0 | 4.0 | 0.00 | 0.00 | 0.00 | 44 | 1022.5 |
| 20260903183003 | 87 | 268 | 3.0 | 6.0 | 0.00 | 0.00 | 0.00 | 44 | 1022.5 |
| 20260903182503 | 88 | 279 | 3.0 | 6.0 | 0.00 | 0.00 | 0.00 | 44 | 1022.3 |
| 20260903182003 | 88 | 277 | 3.0 | 6.0 | 0.00 | 0.00 | 0.00 | 44 | 1022.4 |
| 20260903181503 | 88 | 260 | 2.0 | 7.0 | 0.00 | 0.00 | 0.00 | 44 | 1022.5 |
| 20260903181003 | 88 | 267 | 2.0 | 7.0 | 0.00 | 0.00 | 0.00 | 44 | 1022.3 |
| 20260903180503 | 89 | 248 | 2.0 | 6.0 | 0.00 | 0.00 | 0.00 | 44 | 1022.2 |
| 20260903180003 | 89 | 224 | 2.0 | 6.0 | 0.00 | 0.00 | 0.00 | 44 | 1022.3 |
| 20260903175503 | 90 | 232 | 2.0 | 6.0 | 0.00 | 0.00 | 0.00 | 44 | 1022.1 |
| 20260903175003 | 90 | 225 | 2.0 | 6.0 | 0.00 | 0.00 | 0.00 | 43 | 1022.1 |
| 20260903174503 | 91 | 231 | 2.0 | 7.0 | 0.00 | 0.00 | 0.00 | 42 | 1022.2 |
| 20260903174003 | 92 | 238 | 2.0 | 7.0 | 0.00 | 0.00 | 0.00 | 42 | 1022.1 |
| 20260903173524 | 93 | 219 | 1.0 | 6.0 | 0.00 | 0.00 | 0.00 | 39 | 1022.2 |
| 20260903173003 | 93 | 222 | 1.0 | 4.0 | 0.00 | 0.00 | 0.00 | 37 | 1022.2 |
| 20260903172503 | 94 | 230 | 1.0 | 6.0 | 0.00 | 0.00 | 0.00 | 37 | 1022.0 |
| 20260903172003 | 94 | 248 | 2.0 | 7.0 | 0.00 | 0.00 | 0.00 | 36 | 1022.0 |
| 20260903171503 | 94 | 266 | 1.0 | 7.0 | 0.00 | 0.00 | 0.00 | 35 | 1022.1 |
| 20260903171003 | 94 | 241 | 1.0 | 4.0 | 0.00 | 0.00 | 0.00 | 35 | 1021.9 |
| 20260903170503 | 95 | 187 | 1.0 | 4.0 | 0.00 | 0.00 | 0.00 | 34 | 1021.9 |
| 20260903170003 | 95 | 178 | 1.0 | 3.0 | 0.00 | 0.00 | 0.00 | 33 | 1022.1 |
| 20260903165503 | 96 | 224 | 1.0 | 7.0 | 0.00 | 0.00 | 0.00 | 33 | 1022.0 |
| 20260903165003 | 96 | 254 | 2.0 | 7.0 | 0.00 | 0.00 | 0.00 | 32 | 1022.1 |
| 20260903164524 | 96 | 248 | 2.0 | 4.0 | 0.00 | 0.00 | 0.00 | 32 | 1021.9 |
| 20260903164003 | 96 | 252 | 1.0 | 7.0 | 0.00 | 0.00 | 0.00 | 32 | 1022.1 |
| 20260903163503 | 97 | 253 | 1.0 | 7.0 | 0.00 | 0.00 | 0.00 | 31 | 1022.1 |
| 20260903163003 | 97 | 207 | 1.0 | 6.0 | 0.00 | 0.00 | 0.00 | 30 | 1022.1 |
| 20260903162503 | 97 | 211 | 1.0 | 6.0 | 0.00 | 0.00 | 0.00 | 29 | 1022.0 |
| 20260903162003 | 97 | 226 | 1.0 | 6.0 | 0.00 | 0.00 | 0.00 | 29 | 1022.1 |
| 20260903161503 | 98 | 265 | 1.0 | 6.0 | 0.00 | 0.00 | 0.00 | 29 | 1022.0 |
| 20260903161003 | 97 | 258 | 1.0 | 6.0 | 0.00 | 0.00 | 0.00 | 29 | 1022.3 |
| 20260903160503 | 98 | 230 | 1.0 | 4.0 | 0.00 | 0.00 | 0.00 | 28 | 1022.1 |
| 20260903160003 | 97 | 262 | 1.0 | 6.0 | 0.00 | 0.00 | 0.00 | 28 | 1022.1 |
| 20260903155503 | 97 | 271 | 2.0 | 6.0 | 0.00 | 0.00 | 0.00 | 29 | 1022.1 |
| 20260903155003 | 98 | 251 | 1.0 | 4.0 | 0.00 | 0.00 | 0.00 | 28 | 1022.0 |
| 20260903154503 | 99 | 236 | 1.0 | 3.0 | 0.00 | 0.00 | 0.00 | 27 | 1022.1 |
| 20260903154003 | 98 | 239 | 1.0 | 3.0 | 0.00 | 0.00 | 0.00 | 25 | 1022.2 |
| 20260903153503 | 98 | 218 | 1.0 | 7.0 | 0.00 | 0.00 | 0.00 | 26 | 1022.1 |
| 20260903153003 | 98 | 213 | 1.0 | 7.0 | 0.00 | 0.00 | 0.00 | 27 | 1022.4 |
| 20260903152524 | 98 | 220 | 1.0 | 6.0 | 0.00 | 0.00 | 0.00 | 26 | 1022.2 |
| 20260903152024 | 98 | 271 | 2.0 | 8.0 | 0.00 | 0.00 | 0.00 | 25 | 1022.3 |
| 20260903151503 | 97 | 318 | 2.0 | 8.0 | 0.00 | 0.00 | 0.00 | 27 | 1022.2 |
| 20260903151003 | 97 | 283 | 2.0 | 9.0 | 0.00 | 0.00 | 0.00 | 26 | 1022.4 |
| 20260903150503 | 97 | 278 | 3.0 | 9.0 | 0.00 | 0.00 | 0.00 | 26 | 1022.4 |
| 20260903150003 | 97 | 278 | 2.0 | 8.0 | 0.00 | 0.00 | 0.00 | 25 | 1022.4 |
| 20260903145503 | 98 | 284 | 2.0 | 7.0 | 0.00 | 0.00 | 0.00 | 23 | 1022.5 |
| 20260903145003 | 98 | 297 | 2.0 | 7.0 | 0.00 | 0.00 | 0.00 | 26 | 1022.4 |
| 20260903144524 | 99 | 323 | 2.0 | 7.0 | 0.00 | 0.00 | 0.00 | 25 | 1022.7 |
| 20260903144003 | 98 | 290 | 1.0 | 6.0 | 0.00 | 0.00 | 0.00 | 25 | 1022.8 |
| 20260903143504 | 98 | 226 | 2.0 | 6.0 | 0.00 | 0.00 | 0.00 | 25 | 1022.4 |
| 20260903143003 | 97 | 262 | 2.0 | 6.0 | 0.00 | 0.00 | 0.00 | 26 | 1022.5 |
| 20260903142503 | 96 | 316 | 3.0 | 8.0 | 0.00 | 0.00 | 0.00 | 26 | 1022.5 |
| 20260903142003 | 96 | 11 | 2.0 | 8.0 | 0.00 | 0.00 | 0.00 | 26 | 1022.7 |
| 20260903141503 | 98 | 266 | 2.0 | 7.0 | 0.00 | 0.00 | 0.00 | 24 | 1022.8 |